Weather History for Fort Payne, AL

Change the Weather History Date:

Saturday, April 6, 2013

  Actual Average (KRMG) Record (KRMG)
Temperature  
Mean Temperature 52 °F 57 °F  
Max Temperature 71 °F 70 °F 82 °F (2001)
Min Temperature 33 °F 45 °F 33 °F (2007)
Degree Days  
Heating Degree Days 13 8  
Month to date heating degree days 51  
Since 1 July heating degree days 3078  
Cooling Degree Days 0 1  
Month to date cooling degree days 2  
Year to date cooling degree days 6  
Growing Degree Days 2 (Base 50)    
Moisture  
Dew Point 33 °F    
Average Humidity 51    
Maximum Humidity 93    
Minimum Humidity 20    
Precipitation  
Precipitation 0.00 in 0.11 in 1.28 in (1997)
Month to date precipitation 0.75  
Year to date precipitation 15.39  
Sea Level Pressure  
Sea Level Pressure 30.11 in    
Wind  
Wind Speed 2 mph (South)    
Max Wind Speed 10 mph    
Max Gust Speed 20 mph    
Visibility 10 miles    
Events      
T = Trace of Precipitation, MM = Missing Value Source: NWS Daily Summary

Daily Weather History Graph

Daily Weather History Graph

Search for Another Location

Airport:

Trip Planner

Search our weather history database for the weather conditions in past years. The results will help you decide how hot, cold, wet, or windy it might be!

Date:

Astronomy

Apr. 06, 2013 Rise Set
Actual Time 6:22 AM CDT 7:07 PM CDT
Civil Twilight 5:57 AM CDT 7:33 PM CDT
Nautical Twilight 5:27 AM CDT 8:03 PM CDT
Astronomical Twilight 4:56 AM CDT 8:34 PM CDT
Moon 3:57 AM CDT (4/6) 3:44 PM CDT (4/6)
Length of Visible Light 13h 36m
Length of Day
12h 45m
Waning Crescent, 15% of the Moon is Illuminated
Apr 6
Waning Crescent
Apr 10
New
Apr 18
First Quarter
Apr 25
Full
May 2
Last Quarter

Hourly Weather History & Observations

Time (CDT) Temp. Dew Point Humidity Pressure Visibility Wind Dir Wind Speed Gust Speed Precip Events Conditions
12:15 AM 41.0 °F 35.6 °F 81% 30.12 in 10.0 mi Calm Calm - N/A   Clear
12:35 AM 41.0 °F 35.6 °F 81% 30.12 in 10.0 mi Calm Calm - N/A   Clear
12:55 AM 39.2 °F 35.6 °F 87% 30.11 in 10.0 mi Calm Calm - N/A   Clear
1:15 AM 39.2 °F 35.6 °F 87% 30.12 in 10.0 mi Calm Calm - N/A   Clear
1:35 AM 37.4 °F 33.8 °F 87% 30.11 in 10.0 mi Calm Calm - N/A   Clear
1:55 AM 37.4 °F 33.8 °F 87% 30.10 in 10.0 mi Calm Calm - N/A   Clear
2:15 AM 37.4 °F 35.6 °F 93% 30.10 in 10.0 mi Calm Calm - N/A   Clear
2:35 AM 35.6 °F 33.8 °F 93% 30.10 in 10.0 mi Calm Calm - N/A   Clear
2:55 AM 35.6 °F 33.8 °F 93% 30.10 in 10.0 mi Calm Calm - N/A   Clear
3:15 AM 35.6 °F 33.8 °F 93% 30.10 in 10.0 mi Calm Calm - N/A   Clear
3:35 AM 35.6 °F 32.0 °F 87% 30.11 in 10.0 mi Calm Calm - N/A   Clear
3:55 AM 35.6 °F 33.8 °F 93% 30.11 in 10.0 mi Calm Calm - N/A   Clear
4:15 AM 35.6 °F 32.0 °F 87% 30.11 in 10.0 mi Calm Calm - N/A   Clear
4:35 AM 35.6 °F 32.0 °F 87% 30.11 in 10.0 mi Calm Calm - N/A   Clear
4:55 AM 33.8 °F 32.0 °F 93% 30.12 in 10.0 mi Calm Calm - N/A   Clear
5:15 AM 33.8 °F 32.0 °F 93% 30.12 in 10.0 mi Calm Calm - N/A   Clear
5:35 AM 33.8 °F 32.0 °F 93% 30.13 in 10.0 mi Calm Calm - N/A   Clear
5:55 AM 33.8 °F 32.0 °F 93% 30.13 in 10.0 mi Calm Calm - N/A   Clear
6:15 AM 33.8 °F 32.0 °F 93% 30.13 in 10.0 mi Calm Calm - N/A   Clear
6:35 AM 33.8 °F 32.0 °F 93% 30.14 in 7.0 mi Calm Calm - N/A   Clear
6:55 AM 33.8 °F 32.0 °F 93% 30.15 in 7.0 mi Calm Calm - N/A   Clear
7:15 AM 35.6 °F 32.0 °F 87% 30.16 in 7.0 mi Calm Calm - N/A   Clear
7:35 AM 37.4 °F 35.6 °F 93% 30.16 in 10.0 mi Calm Calm - N/A   Clear
7:55 AM 41.0 °F 35.6 °F 81% 30.17 in 10.0 mi Calm Calm - N/A   Clear
8:15 AM 44.6 °F 37.4 °F 76% 30.17 in 10.0 mi Calm Calm - N/A   Clear
8:35 AM 48.2 °F 37.4 °F 66% 30.17 in 10.0 mi Calm Calm - N/A   Clear
8:55 AM 51.8 °F 37.4 °F 58% 30.16 in 10.0 mi Calm Calm - N/A   Clear
9:15 AM 55.4 °F 37.4 °F 51% 30.17 in 10.0 mi Calm Calm - N/A   Clear
9:35 AM 60.8 °F 33.8 °F 36% 30.17 in 10.0 mi Calm Calm - N/A   Clear
9:55 AM 62.6 °F 28.4 °F 27% 30.18 in 10.0 mi Calm Calm - N/A   Clear
10:15 AM 62.6 °F 32.0 °F 32% 30.18 in 10.0 mi Calm Calm - N/A   Clear
10:35 AM 62.6 °F 32.0 °F 32% 30.18 in 10.0 mi ESE 8.1 mph - N/A   Clear
10:55 AM 64.4 °F 32.0 °F 30% 30.17 in 10.0 mi South 9.2 mph - N/A   Clear
11:15 AM 64.4 °F 30.2 °F 28% 30.17 in 10.0 mi SSE 5.8 mph 19.6 mph N/A   Clear
11:35 AM 64.4 °F 32.0 °F 30% 30.17 in 10.0 mi SE 8.1 mph - N/A   Clear
11:55 AM 66.2 °F 32.0 °F 28% 30.17 in 10.0 mi South 6.9 mph - N/A   Clear
12:15 PM 66.2 °F 32.0 °F 28% 30.16 in 10.0 mi South 9.2 mph - N/A   Clear
12:35 PM 68.0 °F 32.0 °F 26% 30.15 in 10.0 mi Calm Calm - N/A   Clear
12:55 PM 68.0 °F 32.0 °F 26% 30.14 in 10.0 mi SSE 4.6 mph - N/A   Clear
1:15 PM 68.0 °F 32.0 °F 26% 30.13 in 10.0 mi South 8.1 mph 16.1 mph N/A   Clear
1:35 PM 69.8 °F 30.2 °F 23% 30.13 in 10.0 mi South 6.9 mph - N/A   Clear
1:55 PM 68.0 °F 30.2 °F 24% 30.12 in 10.0 mi SSE 8.1 mph - N/A   Clear
2:15 PM 69.8 °F 32.0 °F 25% 30.11 in 10.0 mi SE 8.1 mph - N/A   Clear
2:35 PM 69.8 °F 30.2 °F 23% 30.10 in 10.0 mi SSW 9.2 mph - N/A   Clear
2:55 PM 69.8 °F 32.0 °F 25% 30.09 in 10.0 mi South 8.1 mph 16.1 mph N/A   Clear
3:15 PM 69.8 °F 30.2 °F 23% 30.08 in 10.0 mi South 10.4 mph 17.3 mph N/A   Clear
3:35 PM 71.6 °F 30.2 °F 22% 30.08 in 10.0 mi SE 6.9 mph - N/A   Clear
3:55 PM 71.6 °F 32.0 °F 23% 30.07 in 10.0 mi South 6.9 mph - N/A   Clear
4:15 PM 71.6 °F 30.2 °F 22% 30.06 in 10.0 mi South 8.1 mph 16.1 mph N/A   Clear
4:35 PM 71.6 °F 30.2 °F 22% 30.06 in 10.0 mi SE 8.1 mph 16.1 mph N/A   Clear
4:55 PM 71.6 °F 30.2 °F 22% 30.06 in 10.0 mi SSW 4.6 mph - N/A   Clear
5:15 PM 71.6 °F 30.2 °F 22% 30.06 in 10.0 mi South 9.2 mph - N/A   Clear
5:35 PM 71.6 °F 28.4 °F 20% 30.06 in 10.0 mi SSE 5.8 mph - N/A   Clear
5:55 PM 69.8 °F 28.4 °F 21% 30.06 in 10.0 mi South 8.1 mph - N/A   Clear
6:15 PM 69.8 °F 30.2 °F 23% 30.06 in 10.0 mi South 4.6 mph - N/A   Clear
6:35 PM 69.8 °F 30.2 °F 23% 30.05 in 10.0 mi South 3.5 mph - N/A   Clear
6:55 PM 68.0 °F 32.0 °F 26% 30.05 in 10.0 mi SSE 3.5 mph - N/A   Clear
7:15 PM 68.0 °F 32.0 °F 26% 30.05 in 10.0 mi South 4.6 mph - N/A   Clear
7:35 PM 66.2 °F 32.0 °F 28% 30.06 in 10.0 mi South 3.5 mph - N/A   Clear
7:55 PM 66.2 °F 32.0 °F 28% 30.07 in 10.0 mi Calm Calm - N/A   Clear
8:15 PM 64.4 °F 32.0 °F 30% 30.07 in 10.0 mi Calm Calm - N/A   Clear
8:35 PM 64.4 °F 32.0 °F 30% 30.07 in 10.0 mi Calm Calm - N/A   Clear
8:55 PM 62.6 °F 33.8 °F 34% 30.08 in 10.0 mi South 3.5 mph - N/A   Clear
9:15 PM 62.6 °F 33.8 °F 34% 30.08 in 10.0 mi South 4.6 mph - N/A   Clear
9:35 PM 62.6 °F 33.8 °F 34% 30.08 in 10.0 mi South 4.6 mph - N/A   Clear
9:55 PM 62.6 °F 33.8 °F 34% 30.09 in 10.0 mi South 6.9 mph - N/A   Clear
10:15 PM 62.6 °F 33.8 °F 34% 30.09 in 10.0 mi SSE 5.8 mph - N/A   Clear
10:35 PM 62.6 °F 33.8 °F 34% 30.09 in 10.0 mi South 6.9 mph - N/A   Clear
10:55 PM 62.6 °F 33.8 °F 34% 30.09 in 10.0 mi South 4.6 mph - N/A   Clear
11:15 PM 60.8 °F 33.8 °F 36% 30.09 in 10.0 mi Calm Calm - N/A   Clear
11:35 PM 53.6 °F 37.4 °F 54% 30.10 in 10.0 mi SSW 3.5 mph - N/A   Clear
11:55 PM 51.8 °F 39.2 °F 62% 30.10 in 10.0 mi Calm Calm - N/A   Clear